Theta_e
319 321 321 319 315 315 314 317 318 316 315 316 315 315 316 316 317 317 318 320 320 319 319 320 320 322 323 326 327 325 326 327 328 330 330 329 329 330 330 329 330 328 317 313
318 321 316 314 316 318 316 317 318 315 315 316 316 317 317 315 316 317 318 319 319 320 322 321 321 321 321 321 323 326 324 323 324 326 329 330 329 330 330 329 329 330 329 322
320 318 316 316 316 318 317 321 319 319 316 315 313 315 315 314 315 318 318 318 317 318 319 320 320 321 321 321 321 323 325 325 324 324 326 329 330 329 330 330 330 330 330 329
319 317 317 317 317 317 321 316 318 319 320 321 315 320 316 314 314 313 316 317 318 318 318 317 317 320 321 321 321 321 321 324 324 324 324 325 327 329 329 329 330 331 330 330
316 315 318 319 318 316 319 315 317 317 319 318 317 321 317 314 314 313 314 317 317 317 317 318 317 318 318 320 321 321 321 320 322 325 324 323 323 322 326 328 329 330 330 330
314 314 315 314 314 314 313 315 315 315 317 322 317 317 315 313 312 313 314 316 316 317 318 319 318 318 319 319 320 321 321 321 321 320 323 325 323 323 323 323 324 327 329 329
315 315 314 314 315 314 315 317 319 321 320 319 311 315 317 312 311 313 314 317 317 318 316 316 316 317 319 320 319 320 321 321 321 321 320 324 325 324 324 324 323 323 324 326
317 318 315 314 314 315 317 316 316 315 316 314 310 316 313 311 313 313 313 314 315 315 316 317 318 318 318 318 321 321 321 322 321 321 321 320 322 325 325 324 324 324 323 321
314 313 311 314 315 314 316 316 313 315 298 312 313 311 310 309 310 311 314 315 316 317 317 317 317 316 317 318 319 320 321 321 321 321 321 321 320 321 324 324 325 325 324 324
310 313 312 312 312 312 315 314 319 317 317 315 312 311 314 312 312 311 311 313 315 314 314 315 315 314 316 317 319 319 320 321 320 320 320 321 321 321 323 324 325 326 325 325
311 309 313 312 313 313 313 316 316 316 317 316 312 313 307 311 310 309 309 312 311 312 312 313 314 314 315 317 318 319 319 320 320 320 319 320 321 322 322 324 325 326 326 327
311 310 310 313 311 310 312 313 316 319 316 317 317 316 309 308 307 308 308 310 310 312 313 313 312 313 312 314 314 315 316 316 317 318 318 320 321 322 323 323 324 324 326 327
310 311 309 308 305 309 314 314 314 314 313 315 315 313 304 306 308 310 311 312 312 312 312 312 314 311 309 309 311 313 314 315 316 318 319 320 321 322 323 324 325 325 325 325
310 307 306 308 304 306 310 311 313 315 316 314 313 313 310 310 312 313 314 313 314 314 314 315 315 310 311 310 309 310 311 311 312 313 315 318 320 322 323 324 325 326 325 325
307 306 307 308 307 309 309 309 310 314 313 311 311 308 308 309 310 311 311 312 312 312 313 314 315 312 311 312 311 312 312 312 312 312 311 311 310 310 314 320 323 324 326 326
309 309 309 308 309 309 309 308 308 310 311 311 311 311 308 310 311 311 312 312 311 311 311 312 315 313 312 313 312 312 312 312 312 312 311 311 312 312 311 310 309 309 310 313
310 308 309 309 306 308 305 307 307 307 308 310 310 310 308 309 310 311 311 311 311 311 311 312 313 314 313 313 312 312 312 312 312 311 311 310 310 310 310 310 310 309 309 309
308 305 302 303 296 302 303 303 305 306 307 307 308 309 309 309 309 309 309 309 310 310 311 311 312 314 314 312 313 312 312 312 312 311 310 309 309 309 309 309 309 309 309 309
303 301 296 297 289 297 300 299 303 305 304 305 307 307 307 308 307 307 308 309 310 310 311 311 312 312 312 312 312 312 312 312 311 310 309 308 308 308 308 308 309 309 309 309
300 299 297 286 289 292 297 298 301 301 302 301 302 302 302 306 307 306 308 309 308 310 311 311 312 312 312 313 310 312 312 312 310 309 308 307 306 307 307 307 308 308 309 309
297 294 292 283 287 293 296 297 304 301 300 293 295 295 294 297 300 297 302 307 308 308 311 311 313 311 312 311 310 310 311 310 308 307 306 306 306 306 307 307 308 307 307 306
298 296 290 285 288 296 297 300 300 293 290 290 289 290 289 289 290 293 296 301 305 305 310 311 311 309 309 308 309 309 310 308 307 306 305 306 306 307 307 307 305 305 305 305
298 298 295 297 297 295 292 292 286 285 284 284 283 285 285 287 289 291 294 299 302 303 306 309 309 308 307 307 307 307 306 306 305 305 306 306 306 306 306 305 304 304 304 302
295 289 299 298 295 291 288 286 284 284 282 281 281 282 286 285 287 289 293 296 299 301 303 304 304 306 306 305 305 304 304 304 304 305 306 306 305 304 303 303 302 302 302 302
285 285 285 292 289 289 284 280 278 280 279 280 282 282 283 285 287 286 289 291 295 298 299 301 301 301 302 302 302 302 302 303 303 303 304 303 302 302 302 301 302 302 302 301
275 275 285 289 273 273 277 278 277 276 276 277 278 282 282 281 284 286 287 288 290 293 296 298 297 298 298 299 299 300 300 301 301 301 301 301 301 300 299 300 301 300 300 300
Wind_Speed
13 6 17 13 4 5 6 3 3 2 3 2 4 8 14 22 21 20 28 29 29 29 30 27 27 25 25 28 30 29 30 31 31 34 33 32 34 31 29 28 25 23 24 25
5 17 8 8 7 5 5 3 2 4 2 1 6 11 15 13 19 26 30 32 33 34 37 35 34 29 28 30 32 34 33 32 33 35 36 37 35 35 33 31 30 28 27 26
12 3 16 8 4 7 4 9 3 5 6 3 6 8 11 8 18 28 33 35 37 38 38 37 35 34 34 31 34 37 36 35 34 35 35 38 39 40 38 38 37 34 31 28
6 2 11 7 6 7 8 5 4 3 1 6 2 7 9 5 9 9 24 26 28 31 34 37 38 33 34 34 30 35 36 37 36 36 38 39 40 42 40 38 36 37 35 33
3 7 7 5 5 6 3 6 7 4 2 3 5 4 8 2 6 8 18 27 27 28 30 31 30 30 36 36 36 34 35 38 39 41 40 40 40 39 40 40 38 36 37 37
3 2 6 8 4 7 7 5 3 2 2 5 7 9 5 5 5 4 17 27 27 22 20 22 21 24 28 30 35 39 39 39 37 40 43 44 40 38 40 39 39 37 36 37
5 4 3 8 6 2 4 6 1 3 4 7 2 5 13 9 6 7 12 22 24 21 27 30 31 28 26 25 29 32 37 41 40 41 43 45 44 43 42 40 38 38 37 37
9 6 9 4 6 7 8 7 4 5 4 4 2 8 6 14 23 24 28 30 32 31 30 31 28 26 28 27 22 26 30 32 37 40 42 45 46 47 47 44 42 39 36 35
4 3 3 2 4 6 4 8 6 2 2 1 4 9 10 8 11 16 28 29 29 28 26 28 28 26 25 25 27 24 25 28 32 35 38 42 45 48 50 47 45 42 36 34
7 4 1 3 5 4 2 4 3 4 4 5 5 6 12 7 14 13 9 20 19 18 26 30 31 26 24 20 23 28 26 24 25 28 33 34 37 39 43 46 47 44 39 36
5 4 3 6 5 9 2 3 2 2 3 4 2 7 7 12 12 9 9 8 17 18 21 26 28 24 20 19 18 21 28 30 29 26 26 28 29 30 32 36 40 41 41 39
2 3 4 2 3 4 6 9 6 3 3 3 2 10 6 9 3 6 12 19 12 22 25 30 30 26 19 16 16 16 18 20 21 22 22 21 21 22 25 28 30 32 35 36
9 4 4 2 3 3 6 7 6 4 3 9 3 9 3 8 9 18 25 37 38 38 38 32 35 23 18 15 14 11 10 11 12 12 15 16 17 18 20 21 22 23 25 27
17 4 6 8 5 6 6 7 14 14 5 6 17 30 13 15 16 27 37 41 44 40 44 42 37 20 12 8 5 6 6 6 6 6 8 10 12 15 17 19 20 22 23 25
5 5 3 1 5 3 4 6 12 16 20 9 24 17 3 5 7 13 26 36 43 44 41 40 34 25 16 11 7 6 3 2 2 3 5 7 9 12 15 18 19 21 22 23
0 5 4 2 2 4 6 8 9 11 11 16 15 31 7 9 16 22 29 35 36 43 42 41 37 33 26 19 16 13 10 8 9 10 11 13 14 15 15 15 16 18 21 24
7 5 3 2 1 3 7 15 12 8 12 16 18 35 15 9 18 28 35 35 34 39 47 49 42 36 33 27 22 19 16 15 15 15 16 17 18 18 18 17 17 17 17 18
8 5 3 2 2 3 6 1 8 15 14 18 24 24 22 24 37 50 33 39 45 45 52 52 47 40 35 34 31 26 22 20 19 19 18 18 18 18 17 17 17 16 16 15
4 5 3 5 4 7 9 5 7 9 15 17 19 16 20 31 35 35 34 40 41 46 49 52 52 50 42 37 34 30 27 25 22 19 19 17 15 15 14 14 14 13 12 11
3 4 4 3 5 7 5 6 21 5 18 8 11 14 18 18 11 9 29 37 42 39 35 40 46 47 41 37 34 33 31 27 23 20 17 15 13 13 12 11 12 12 11 11
4 1 6 3 3 9 7 12 10 6 8 14 17 15 18 7 17 38 47 51 49 44 38 38 38 36 36 33 35 36 31 26 21 18 15 13 12 11 10 10 10 9 9 8
6 7 4 3 2 11 3 2 6 6 6 12 19 24 29 30 40 43 44 46 46 42 35 35 31 26 28 30 31 31 28 24 21 18 14 14 13 13 12 12 11 11 10 9
2 5 6 9 8 5 7 8 5 9 12 13 19 26 30 40 44 45 49 49 45 37 30 26 23 21 24 26 28 26 23 21 19 18 17 16 16 15 14 13 13 12 11 10
1 4 3 2 2 4 8 8 5 17 20 23 24 31 35 39 42 45 48 46 42 32 26 21 20 21 22 21 21 22 20 19 18 19 19 18 16 15 15 14 13 11 11 10
1 4 1 6 2 10 12 8 19 28 24 28 33 32 32 36 41 38 41 38 36 31 23 19 19 19 19 18 19 18 18 18 19 18 17 16 15 14 13 13 11 9 9 8
6 3 2 3 6 6 13 17 35 28 30 33 38 43 32 28 36 36 34 32 29 25 21 16 16 16 15 16 17 18 19 19 17 16 15 15 14 14 13 12 13 13 10 9
Wind_Direction
172 177 206 196 159 121 130 155 194 244 290 292 251 266 277 277 276 267 269 270 267 264 259 261 264 264 257 248 243 242 237 236 235 234 238 241 243 246 249 248 246 244 243 243
153 211 175 142 158 133 131 137 233 277 350 230 291 276 278 257 262 259 262 267 267 268 265 265 268 266 263 260 252 243 243 239 237 237 238 239 245 247 250 252 250 249 248 246
185 190 145 138 150 155 171 223 197 252 327 292 315 274 261 258 252 260 260 262 264 265 267 268 269 263 259 261 255 249 244 245 244 240 239 240 243 246 248 247 249 248 249 248
204 109 148 155 175 154 224 166 243 280 320 270 13 295 267 229 252 250 265 262 263 264 265 266 265 261 257 256 259 255 253 249 249 246 242 240 242 245 249 250 251 251 250 251
201 157 134 155 163 154 205 151 184 186 204 329 223 261 271 292 252 262 266 268 269 268 270 271 269 267 259 258 257 256 255 256 253 248 247 245 244 248 251 255 254 252 250 249
160 156 160 164 129 157 142 98 89 83 123 251 203 193 250 238 215 239 256 267 276 277 276 272 275 275 267 258 255 254 253 253 258 256 248 246 247 248 250 253 254 253 250 248
154 159 138 138 115 88 151 134 220 217 199 243 323 203 248 278 252 235 246 269 275 267 288 281 283 281 275 269 259 255 253 253 252 254 253 248 249 251 253 255 257 257 255 252
162 179 164 180 169 161 176 178 175 210 204 272 315 242 255 230 256 257 264 269 275 279 286 294 298 295 280 274 269 253 250 252 250 251 253 254 253 251 252 255 256 257 259 259
141 153 28 108 122 136 186 202 199 9 62 306 222 285 279 253 274 270 260 263 270 284 299 307 307 302 291 271 263 263 258 255 255 254 254 256 255 254 253 254 255 257 259 261
187 121 178 156 82 53 143 139 133 189 215 226 255 264 235 303 285 276 272 273 291 315 318 315 308 299 294 270 266 254 249 251 254 260 257 256 258 258 256 255 255 254 257 261
140 105 125 122 186 171 118 178 185 250 204 212 293 258 212 216 242 278 295 326 337 350 348 339 333 323 295 277 263 259 253 255 255 254 260 256 254 255 258 258 258 258 257 259
98 107 146 156 54 182 160 180 181 209 193 220 285 265 211 229 254 356 336 322 328 331 344 345 338 329 318 289 275 269 266 267 265 259 256 255 254 253 254 255 257 261 262 261
156 162 125 54 8 15 202 200 193 198 134 224 218 254 349 62 22 338 328 323 322 321 326 325 329 325 319 302 271 262 260 261 262 259 253 250 249 249 252 255 255 253 255 258
154 149 159 194 192 142 179 197 201 208 211 226 230 265 264 306 317 312 312 315 312 307 310 312 313 306 313 334 318 263 247 247 249 249 246 246 248 248 248 247 248 249 247 248
129 160 140 218 112 98 191 191 195 206 223 205 256 284 235 262 270 290 301 297 297 301 302 307 298 291 271 269 266 262 261 277 285 282 277 271 264 259 255 252 252 253 254 254
212 132 132 210 196 244 251 226 230 231 241 255 274 273 70 309 301 293 283 283 285 289 292 296 292 288 265 256 251 249 251 262 269 272 273 271 267 264 262 261 259 258 256 253
142 129 109 207 233 180 280 232 221 220 223 235 242 255 284 270 277 274 276 283 285 286 285 283 277 279 278 256 252 247 250 259 266 271 273 271 267 264 260 257 256 254 252 252
140 116 87 150 70 232 247 253 211 210 233 232 246 260 266 274 273 277 286 284 279 276 277 278 277 270 275 254 246 243 247 257 265 269 274 270 263 259 258 255 250 247 246 242
123 131 128 150 198 303 286 217 195 183 248 229 247 258 256 263 277 282 294 295 292 292 288 282 279 277 270 257 245 243 246 252 258 262 266 261 259 254 252 249 248 243 236 228
79 65 121 102 149 230 246 228 206 78 268 230 279 333 350 328 282 307 307 313 309 304 302 298 289 274 267 255 243 240 242 245 249 253 255 249 246 242 240 233 229 223 210 207
133 46 167 171 222 280 240 253 154 156 277 356 349 344 345 320 290 308 305 305 306 311 306 288 290 274 262 246 240 234 235 239 240 247 243 233 225 221 217 217 206 195 188 190
156 152 178 96 107 276 354 253 212 325 345 359 336 330 322 310 308 314 315 319 314 311 305 289 284 262 241 228 225 228 231 234 238 237 221 211 199 194 189 187 187 179 177 183
206 186 176 183 210 90 51 107 101 353 332 340 329 321 320 315 316 315 313 319 318 309 292 278 265 243 225 219 219 222 226 227 226 213 202 191 183 178 175 176 185 180 179 187
202 28 220 68 281 100 101 111 22 342 330 322 322 319 317 314 316 312 310 312 314 306 282 262 246 232 225 222 220 220 219 216 207 197 187 179 178 180 179 180 180 182 179 181
306 352 202 272 306 359 134 44 350 333 323 319 315 318 315 311 309 311 308 305 304 298 275 257 243 228 218 214 211 209 203 197 190 186 182 178 177 180 182 176 167 164 160 154
10 21 216 247 26 308 286 314 327 323 325 323 320 317 317 311 309 308 303 296 290 282 258 241 231 220 211 203 198 191 182 179 182 182 178 174 173 171 170 169 158 150 148 139